This demonstration page uses our WeatherBlox Daily Observations layout. Learn more.

Left ArrowRight Arrow

Hourly Observations for December 2, 2022

Temp ( °F °C ) Dew Point ( °F °C ) Humidity (%) Winds ( mph kmh ) Pressure ( in mb ) Visibility ( mi km ) Precip ( " mm )
12:53 am 00:53 Clear 36 2.2 32 0 85 85 Calm 30.44 1031 10 16 0.00 0.00
1:53 am 01:53 Clear 34 1.1 31 -0.6 88 88 Calm 30.44 1031 10 16 0.00 0.00
2:53 am 02:53 Clear 33 0.6 31 -0.6 92 92 Calm 30.43 1031 10 16 0.00 0.00
3:53 am 03:53 Mostly Clear 33 0.6 30 -1.1 88 88 Calm 30.44 1031 10 16 0.00 0.00
4:53 am 04:53 Clear 36 2.2 31 -0.6 82 82 Calm 30.44 1031 10 16 0.00 0.00
5:53 am 05:53 Partly Cloudy 39 3.9 31 -0.6 72 72 Calm 30.46 1031 10 16 0.00 0.00
6:00 am 06:00 Cloudy 40 4.4 31 -0.6 70 70 NE 3 6 30.48 1032 10 16 0.00 0.00
6:33 am 06:33 Cloudy 41 5 30 -1.1 65 65 NE 6 9 30.49 1032 10 16 0.00 0.00
6:53 am 06:53 Cloudy 41 5 29 -1.7 62 62 NE 7 11 30.47 1032 10 16 0.00 0.00
7:53 am 07:53 Cloudy 42 5.6 29 -1.7 59 59 NNE 6 9 30.48 1032 10 16 0.00 0.00
8:53 am 08:53 Partly Cloudy 45 7.2 30 -1.1 55 55 ENE 3 6 30.47 1032 10 16 0.00 0.00
9:53 am 09:53 Cloudy 50 10 27 -2.8 40 40 VRB 3 6 30.48 1032 10 16 0.00 0.00
10:53 am 10:53 Cloudy 51 10.6 27 -2.8 39 39 E 8 13 30.47 1032 10 16 0.00 0.00
11:53 am 11:53 Mostly Sunny 52 11.1 32 0 46 46 SE 6 9 30.44 1031 10 16 0.00 0.00
12:53 pm 12:53 Partly Cloudy 57 13.9 37 2.8 47 47 SE 7 11 30.40 1030 10 16 0.00 0.00
1:53 pm 13:53 Sunny 57 13.9 38 3.3 49 49 ESE 7 11 30.37 1028 10 16 0.00 0.00
2:53 pm 14:53 Sunny 60 15.6 42 5.6 51 51 VRB 6 9 30.35 1028 10 16 0.00 0.00
3:53 pm 15:53 Sunny 61 16.1 43 6.1 51 51 S 5 7 30.35 1028 10 16 0.00 0.00
4:53 pm 16:53 Sunny 60 15.6 43 6.1 53 53 ESE 6 9 30.35 1028 10 16 0.00 0.00
5:53 pm 17:53 Clear 58 14.4 44 6.7 60 60 E 5 7 30.35 1028 10 16 0.00 0.00
6:53 pm 18:53 Clear 58 14.4 43 6.1 57 57 E 6 9 30.36 1028 10 16 0.00 0.00
7:53 pm 19:53 Clear 57 13.9 43 6.1 59 59 ESE 7 11 30.34 1028 10 16 0.00 0.00
8:53 pm 20:53 Clear 56 13.3 43 6.1 62 62 ESE 6 9 30.37 1028 10 16 0.00 0.00
9:53 pm 21:53 Clear 55 12.8 43 6.1 64 64 E 5 7 30.37 1028 10 16 0.00 0.00
10:53 pm 22:53 Clear 54 12.2 44 6.7 69 69 ESE 3 6 30.37 1028 10 16 0.00 0.00
11:53 pm 23:53 Clear 54 12.2 45 7.2 71 71 ESE 6 9 30.35 1028 10 16 0.00 0.00

Powered by AerisWeather